SXS569 LTAR-LTCE

Flight info

Callsign SXS569
Flight time 0h 39m
Altitude 35000
Route OTSOV1C OTSOV UA4 ARKIN/N0408F270 A4 DAMAT DAMAT1J
Aircraft SXS/M-SDGIJ1LRWY/SB1

Departure

Time 2026-04-26 18:48
Airport Sivas Nuri Demirağ Airport (LTAR)

Arrival

Time 2026-04-26 19:27
Airport Erzurum International Airport (LTCE)
Time Latitude Longitude Altitude Speed Heading
2026-04-26 18:08 39.80178 36.89374 5241 ft 0 kts 288°
2026-04-26 18:38 39.80178 36.89375 5244 ft 0 kts 288°
2026-04-26 18:39 39.80175 36.89389 5244 ft 2 kts 288°
2026-04-26 18:40 39.80172 36.89400 5244 ft 2 kts 288°
2026-04-26 18:40 39.80171 36.89420 5244 ft 2 kts 251°
2026-04-26 18:40 39.80179 36.89437 5243 ft 2 kts 221°
2026-04-26 18:40 39.80187 36.89444 5243 ft 0 kts 201°
2026-04-26 18:41 39.80194 36.89447 5242 ft 0 kts 198°
2026-04-26 18:41 39.80195 36.89447 5242 ft 0 kts 198°
2026-04-26 18:41 39.80194 36.89447 5242 ft 0 kts 198°
2026-04-26 18:44 39.80195 36.89447 5242 ft 0 kts 198°
2026-04-26 18:44 39.80193 36.89446 5242 ft 1 kts 198°
2026-04-26 18:44 39.80167 36.89454 5243 ft 7 kts 136°
2026-04-26 18:44 39.80132 36.89562 5243 ft 15 kts 108°
2026-04-26 18:45 39.80103 36.89684 5242 ft 12 kts 108°
2026-04-26 18:45 39.80074 36.89774 5242 ft 10 kts 141°
2026-04-26 18:45 39.79999 36.89767 5244 ft 13 kts 198°
2026-04-26 18:45 39.79903 36.89728 5246 ft 12 kts 197°
2026-04-26 18:46 39.79837 36.89724 5247 ft 7 kts 154°
2026-04-26 18:46 39.79800 36.89742 5247 ft 3 kts 190°
2026-04-26 18:46 39.79781 36.89725 5247 ft 3 kts 226°
2026-04-26 18:46 39.79773 36.89695 5247 ft 3 kts 267°
2026-04-26 18:47 39.79785 36.89680 5247 ft 3 kts
2026-04-26 18:47 39.79846 36.89704 5247 ft 27 kts 18°
2026-04-26 18:47 39.80235 36.89866 5237 ft 90 kts 18°
2026-04-26 18:47 39.81026 36.90197 5218 ft 144 kts 18°
2026-04-26 18:48 39.82122 36.90657 5322 ft 177 kts 18°
2026-04-26 18:48 39.83278 36.91122 5921 ft 179 kts 19°
2026-04-26 18:48 39.84461 36.91627 6536 ft 180 kts 20°
2026-04-26 18:48 39.85692 36.92174 6949 ft 193 kts 18°
2026-04-26 18:49 39.87013 36.92724 7337 ft 207 kts 17°
2026-04-26 18:49 39.88420 36.93291 7738 ft 222 kts 17°
2026-04-26 18:49 39.89937 36.93943 8141 ft 237 kts 21°
2026-04-26 18:49 39.91360 36.95176 8501 ft 257 kts 48°
2026-04-26 18:50 39.92205 36.97287 8899 ft 276 kts 76°
2026-04-26 18:50 39.92313 36.99843 9331 ft 291 kts 97°
2026-04-26 18:50 39.91891 37.02425 9963 ft 299 kts 105°
2026-04-26 18:50 39.91324 37.05069 10514 ft 310 kts 106°
2026-04-26 18:51 39.90715 37.07828 10963 ft 325 kts 106°
2026-04-26 18:51 39.90090 37.10708 11370 ft 341 kts 106°
2026-04-26 18:51 39.89436 37.13779 11763 ft 358 kts 105°
2026-04-26 18:51 39.88772 37.16942 12324 ft 369 kts 105°
2026-04-26 18:52 39.88096 37.20176 13012 ft 375 kts 105°
2026-04-26 18:52 39.87411 37.23450 13764 ft 379 kts 105°
2026-04-26 18:52 39.86724 37.26727 14511 ft 384 kts 105°
2026-04-26 18:52 39.86017 37.30097 15285 ft 388 kts 105°
2026-04-26 18:53 39.85306 37.33486 16044 ft 392 kts 105°
2026-04-26 18:53 39.84592 37.36887 16772 ft 396 kts 105°
2026-04-26 18:53 39.83954 37.40405 17501 ft 401 kts 101°
2026-04-26 18:53 39.83602 37.43964 18198 ft 405 kts 93°
2026-04-26 18:54 39.83585 37.47660 18883 ft 410 kts 88°
2026-04-26 18:54 39.83769 37.51391 19592 ft 414 kts 85°
2026-04-26 18:54 39.84047 37.55084 20270 ft 418 kts 84°
2026-04-26 18:54 39.84365 37.58833 20949 ft 421 kts 83°
2026-04-26 18:55 39.84693 37.62642 21562 ft 426 kts 83°
2026-04-26 18:55 39.85015 37.66464 22168 ft 430 kts 84°
2026-04-26 18:55 39.85334 37.70362 22796 ft 433 kts 84°
2026-04-26 18:55 39.85643 37.74255 23365 ft 437 kts 85°
2026-04-26 18:56 39.85948 37.78197 23903 ft 442 kts 85°
2026-04-26 18:56 39.86236 37.81994 24435 ft 446 kts 85°
2026-04-26 18:56 39.86539 37.86041 24959 ft 450 kts 85°
2026-04-26 18:56 39.86836 37.90049 25494 ft 453 kts 85°
2026-04-26 18:57 39.87136 37.94137 26022 ft 456 kts 86°
2026-04-26 18:57 39.87339 37.96903 26313 ft 459 kts 86°
2026-04-26 18:57 39.87741 38.02429 27004 ft 463 kts 86°
2026-04-26 18:57 39.88047 38.06618 27415 ft 468 kts 86°
2026-04-26 18:58 39.88351 38.10806 27913 ft 470 kts 86°
2026-04-26 18:58 39.88660 38.15063 28376 ft 473 kts 86°
2026-04-26 18:58 39.88966 38.19297 28838 ft 476 kts 86°
2026-04-26 18:58 39.89274 38.23569 29246 ft 480 kts 86°
2026-04-26 18:59 39.89585 38.27924 29701 ft 483 kts 86°
2026-04-26 18:59 39.89893 38.32230 30532 ft 476 kts 86°
2026-04-26 18:59 39.90196 38.36488 31184 ft 473 kts 86°
2026-04-26 18:59 39.90492 38.40687 31670 ft 473 kts 87°
2026-04-26 19:00 39.90791 38.44991 32072 ft 475 kts 87°
2026-04-26 19:00 39.91084 38.49258 32471 ft 477 kts 88°
2026-04-26 19:00 39.91376 38.53522 32935 ft 477 kts 87°
2026-04-26 19:00 39.91676 38.57905 33403 ft 477 kts 87°
2026-04-26 19:01 39.91966 38.62183 33832 ft 477 kts 87°
2026-04-26 19:01 39.92260 38.66538 34295 ft 476 kts 88°
2026-04-26 19:01 39.92550 38.70856 34681 ft 476 kts 88°
2026-04-26 19:01 39.92834 38.75105 35052 ft 474 kts 88°
2026-04-26 19:02 39.93393 38.83584 35120 ft 477 kts 88°
2026-04-26 19:02 39.93846 38.90739 35116 ft 474 kts 89°
2026-04-26 19:03 39.94101 39.00704 35116 ft 475 kts 92°
2026-04-26 19:03 39.94166 39.09248 35108 ft 472 kts 92°
2026-04-26 19:04 39.94236 39.17882 35098 ft 476 kts 92°
2026-04-26 19:04 39.94335 39.26441 35108 ft 476 kts 91°
2026-04-26 19:05 39.94511 39.39296 35117 ft 474 kts 91°
2026-04-26 19:06 39.94628 39.47919 35122 ft 474 kts 91°
2026-04-26 19:06 39.94739 39.56428 35127 ft 474 kts 91°
2026-04-26 19:07 39.94847 39.64983 35124 ft 475 kts 91°
2026-04-26 19:07 39.94951 39.73626 35123 ft 475 kts 92°
2026-04-26 19:08 39.95047 39.82148 35124 ft 473 kts 92°
2026-04-26 19:08 39.95138 39.90725 35123 ft 474 kts 92°
2026-04-26 19:09 39.95218 39.99287 35124 ft 474 kts 92°
2026-04-26 19:09 39.95253 40.03545 34971 ft 476 kts 92°
2026-04-26 19:09 39.95288 40.07867 34470 ft 477 kts 92°
2026-04-26 19:09 39.95322 40.12114 34055 ft 471 kts 92°
2026-04-26 19:10 39.95357 40.16344 33543 ft 463 kts 92°
2026-04-26 19:10 39.95391 40.20499 32936 ft 456 kts 91°
2026-04-26 19:10 39.95421 40.24604 32247 ft 452 kts 92°
2026-04-26 19:10 39.95447 40.28651 31381 ft 452 kts 92°
2026-04-26 19:11 39.95468 40.32752 30471 ft 452 kts 91°
2026-04-26 19:11 39.95494 40.36818 29516 ft 452 kts 91°
2026-04-26 19:11 39.95517 40.40865 28458 ft 453 kts 91°
2026-04-26 19:11 39.95540 40.44930 27345 ft 454 kts 91°
2026-04-26 19:12 39.95558 40.49009 26233 ft 455 kts 90°
2026-04-26 19:12 39.95579 40.53136 25286 ft 450 kts 90°
2026-04-26 19:12 39.95596 40.57147 25105 ft 443 kts 90°
2026-04-26 19:12 39.95611 40.61153 25125 ft 446 kts 90°
2026-04-26 19:13 39.95628 40.65174 25101 ft 449 kts 90°
2026-04-26 19:13 39.95643 40.69207 24752 ft 443 kts 91°
2026-04-26 19:13 39.95649 40.73220 23718 ft 442 kts 90°
2026-04-26 19:13 39.95655 40.77206 22513 ft 443 kts 90°
2026-04-26 19:14 39.95661 40.81181 21215 ft 446 kts 90°
2026-04-26 19:14 39.95673 40.85185 20034 ft 444 kts 90°
2026-04-26 19:14 39.95683 40.89116 19550 ft 425 kts 90°
2026-04-26 19:14 39.95685 40.90412 19438 ft 418 kts 90°
2026-04-26 19:15 39.95690 40.96460 18743 ft 392 kts 90°
2026-04-26 19:15 39.95692 40.99983 18262 ft 379 kts 89°
2026-04-26 19:15 39.95692 41.03358 17803 ft 369 kts 89°
2026-04-26 19:15 39.95692 41.06616 17337 ft 359 kts 90°
2026-04-26 19:16 39.95692 41.09811 16886 ft 350 kts 90°
2026-04-26 19:16 39.95690 41.12942 16452 ft 341 kts 90°
2026-04-26 19:16 39.95689 41.15981 16027 ft 333 kts 90°
2026-04-26 19:16 39.95686 41.18960 15608 ft 326 kts 90°
2026-04-26 19:17 39.95696 41.21862 15286 ft 316 kts 89°
2026-04-26 19:17 39.95760 41.24689 14973 ft 309 kts 87°
2026-04-26 19:17 39.95857 41.27512 14566 ft 317 kts 86°
2026-04-26 19:17 39.95958 41.30337 14223 ft 313 kts 87°
2026-04-26 19:18 39.96054 41.33155 13832 ft 309 kts 87°
2026-04-26 19:18 39.96142 41.35928 13522 ft 305 kts 87°
2026-04-26 19:18 39.96226 41.38668 13290 ft 305 kts 87°
2026-04-26 19:18 39.96305 41.41458 13168 ft 310 kts 87°
2026-04-26 19:19 39.96382 41.44230 13020 ft 305 kts 87°
2026-04-26 19:19 39.96456 41.46946 12893 ft 291 kts 87°
2026-04-26 19:19 39.96543 41.49509 12751 ft 278 kts 84°
2026-04-26 19:19 39.96884 41.51912 12633 ft 263 kts 68°
2026-04-26 19:20 39.97858 41.53810 12505 ft 252 kts 38°
2026-04-26 19:20 39.98856 41.54608 12317 ft 253 kts 20°
2026-04-26 19:20 40.01152 41.55109 11858 ft 253 kts 356°
2026-04-26 19:20 40.02841 41.54619 11550 ft 250 kts 330°
2026-04-26 19:21 40.04125 41.53191 11421 ft 241 kts 305°
2026-04-26 19:21 40.04940 41.51311 11362 ft 235 kts 291°
2026-04-26 19:21 40.05240 41.49307 11302 ft 222 kts 267°
2026-04-26 19:21 40.04875 41.47419 11229 ft 209 kts 247°
2026-04-26 19:22 40.04168 41.45785 11016 ft 206 kts 233°
2026-04-26 19:22 40.03156 41.44458 10737 ft 206 kts 223°
2026-04-26 19:22 40.02114 41.43259 10621 ft 196 kts 223°
2026-04-26 19:22 40.01118 41.42058 10358 ft 194 kts 224°
2026-04-26 19:23 40.00144 41.40844 9959 ft 191 kts 225°
2026-04-26 19:23 39.99203 41.39676 9524 ft 189 kts 224°
2026-04-26 19:23 39.98255 41.38506 9014 ft 189 kts 224°
2026-04-26 19:23 39.97308 41.37329 8658 ft 181 kts 226°
2026-04-26 19:24 39.96592 41.36113 8648 ft 164 kts 242°
2026-04-26 19:24 39.96246 41.34671 8286 ft 170 kts 263°
2026-04-26 19:24 39.96104 41.31786 7788 ft 154 kts 268°
2026-04-26 19:25 39.96066 41.30375 7562 ft 156 kts 268°
2026-04-26 19:25 39.96054 41.29896 7489 ft 156 kts 268°
2026-04-26 19:25 39.95998 41.27557 7120 ft 155 kts 268°
2026-04-26 19:25 39.95965 41.26163 6899 ft 155 kts 268°
2026-04-26 19:26 39.95931 41.24756 6679 ft 154 kts 268°
2026-04-26 19:26 39.95902 41.23362 6456 ft 154 kts 268°
2026-04-26 19:26 39.95857 41.21974 6242 ft 154 kts 267°
2026-04-26 19:26 39.95830 41.20573 6025 ft 153 kts 268°
2026-04-26 19:27 39.95793 41.19199 5800 ft 154 kts 268°
2026-04-26 19:27 39.95762 41.17959 5775 ft 105 kts 267°
2026-04-26 19:27 39.95742 41.17287 5775 ft 48 kts 267°
2026-04-26 19:27 39.95734 41.16929 5776 ft 36 kts 268°
2026-04-26 19:28 39.95727 41.16625 5776 ft 30 kts 268°
2026-04-26 19:28 39.95722 41.16381 5777 ft 17 kts 269°
2026-04-26 19:28 39.95729 41.16239 5776 ft 13 kts 291°
2026-04-26 19:28 39.95701 41.16163 5776 ft 8 kts 222°
2026-04-26 19:29 39.95667 41.16126 5776 ft 4 kts 220°
2026-04-26 19:29 39.95651 41.16105 5776 ft 1 kts 231°
2026-04-26 19:29 39.95662 41.16096 5776 ft 7 kts
2026-04-26 19:29 39.95714 41.16208 5776 ft 25 kts 87°
2026-04-26 19:30 39.95723 41.16523 5776 ft 41 kts 88°
2026-04-26 19:30 39.95732 41.16918 5776 ft 46 kts 88°
2026-04-26 19:30 39.95742 41.17371 5775 ft 50 kts 88°
2026-04-26 19:30 39.95750 41.17654 5774 ft 35 kts 87°
2026-04-26 19:31 39.95761 41.17956 5774 ft 21 kts 87°
2026-04-26 19:31 39.95766 41.18140 5774 ft 18 kts 88°
2026-04-26 19:31 39.95771 41.18292 5773 ft 15 kts 82°
2026-04-26 19:31 39.95845 41.18337 5774 ft 11 kts
2026-04-26 19:32 39.95910 41.18335 5774 ft 7 kts 358°
2026-04-26 19:32 39.95952 41.18333 5774 ft 6 kts 359°
2026-04-26 19:32 39.95996 41.18339 5774 ft 7 kts
2026-04-26 19:32 39.96055 41.18339 5774 ft 6 kts 359°
2026-04-26 19:33 39.96059 41.18339 5774 ft 0 kts 359°